STARLINK-35407, 66334

Orbit data source: Space-Track

STARLINK-35407, 66334 is a payload satellite owned by SpaceX/Seattle (US) in LEO that was launched on Thu, 06 Nov 2025 UTC via an FALCON 9 launch vehicle from the Air Force Eastern Test Range (AFETR). Payload-class satellites include a variety of spacecraft equipped with specific instruments for various scientific and technological missions. These include communications satellites like Starlink; space stations such as the ISS; scientific satellites like the Hubble; Earth observation satellites from companies like Planet Labs, Umbra, and HawkEye 360; GPS; miniature CubeSats for education and research; and military/defense satellites.

Loading next visibility...
Identifier
66334, 2025-253R
Orbit
LEO
Country
Flag of USUS
Related business
Manufacturer
SpaceX/Seattle
Mission
Operational Commercial Communications
Bus & Motor
STARLINK V2MO, Unknown motor
Mass
575 kg wet, ~530 kg dry
Launch date (UTC)
2025-11-06 (7 months ago)
Launch vehicle
FALCON 9
Launch site
Air Force Eastern Test Range (AFETR)
Object type
Payload
Rocket body
Debris
Shape & HBR
Box + 2 Pan, 17.7 m
Radar Cross Section
36.964 m², Large (>1 m²)

Expand to show TLE details & history
Last TLE update: 13 hours ago

TLE from 13 hours ago
0 STARLINK-35407
1 66334U 25253R   26170.60256725  .00012408  00000-0  45952-3 0  9991
2 66334  43.0012 356.7102 0001136 256.8072 103.2653 15.27589747 35833
Epoch: 2026-06-19T14:27Z
TLE epoch observation values (Epoch: 2026-06-19T14:27:41.810Z)
Latitude
-0.00001°
Longitude
-128.0432°
Altitude
482.974 km
Speed
7.626 km/s
True Right ascension
23h 46m 50s
True Declination
0° 00' 00"
Sunlit
Object was in daylight at epoch
Visualization orbit readout
Latitude
Unknown
Longitude
Unknown
Altitude
Unknown
Speed
Unknown
Apparent Right ascension
Unknown
Apparent Declination
Unknown
Sunlit
N/A
Visualization observer readout
Local Sidereal Time
14:26:19
Azimuth
Unknown
Elevation
Unknown
Doppler factor
Unknown
Orbital elements
Apogee altitude
485.745 km
Perigee altitude
484.185 km
Semi-major axis
6,863.102 km
Eccentricity
0.00011
Inclination
43.0012°
RAAN
356.7102°
Arg. of periapsis
256.8072°
True anomaly
103.27797°
Mean anomaly
103.2653°
Eccentric anomaly
103.27163°
Mean motion
3.81735 °/min
Orbital period
94.31 mins
BSTAR
0.00045952
Loading maneuver chart data...
Computing Atmospheric mass density...
Loading historical data...
Loading historical data...
Loading historical data...
Loading historical data...
Loading historical data...
Loading historical data...
Loading historical data...

Documentation

Showing up to 5 results
|